EW9778 Weather Reports


time (UTC)temp
F
wind
direction
speed
knots
gust
knots
rain 1hr
in
rain 24hr
in
rain mn
in
humidity
%
barometer
mb
20260506181538 83 199 0.0 2.6 0.00 0.00 0.00 81 1008.4
20260506180037 82 225 0.9 4.3 0.00 0.00 0.00 82 1008.8
20260506174531 81 207 0.0 3.5 0.00 0.00 0.00 83 1009.0
20260506173028 81 190 0.0 5.2 0.00 0.00 0.00 84 1009.2
20260506171530 81 212 1.7 5.2 0.00 0.00 0.00 84 1009.3
20260506170024 80 203 0.9 4.3 0.00 0.00 0.00 85 1009.3
20260506164523 79 216 0.9 4.3 0.00 0.00 0.00 86 1009.4
20260506163019 79 202 1.7 5.2 0.00 0.00 0.00 86 1009.3
20260506161517 80 211 2.6 6.1 0.00 0.00 0.00 84 1009.0
20260506160017 80 204 0.9 4.3 0.00 0.00 0.00 84 1009.0
20260506154515 80 193 0.9 4.3 0.00 0.00 0.00 84 1009.0
20260506153012 80 200 0.0 3.5 0.00 0.00 0.00 84 1008.9
20260506151510 79 202 2.6 7.0 0.00 0.00 0.00 84 1008.5
20260506150007 79 196 1.7 5.2 0.00 0.00 0.00 85 1008.4
20260506144506 79 201 2.6 7.0 0.00 0.00 0.00 85 1008.2
20260506143005 79 207 1.7 6.1 0.00 0.00 0.00 86 1008.0
20260506141503 78 203 0.9 6.1 0.00 0.00 0.00 88 1008.0
20260506140002 78 219 0.9 4.3 0.00 0.00 0.00 89 1008.2
20260506134502 77 172 0.0 4.3 0.00 0.00 0.00 90 1008.2
20260506133032 77 186 1.7 3.5 0.00 0.00 0.00 90 1008.3
20260506131534 76 184 0.9 6.1 0.00 0.00 0.00 90 1008.3
20260506130003 76 188 0.0 5.2 0.00 0.00 0.00 91 1008.5
20260506124600 76 205 0.0 2.6 0.00 0.00 0.00 91 1008.4
20260506123033 76 203 0.0 4.3 0.00 0.00 0.00 91 1008.3
20260506121529 76 200 0.0 5.2 0.00 0.00 0.00 91 1008.1
20260506120038 75 200 0.0 4.3 0.00 0.00 0.00 91 1007.9
20260506114525 75 195 0.0 4.3 0.00 0.00 0.00 91 1007.7
20260506113030 75 199 0.9 4.3 0.00 0.00 0.00 91 1007.5
20260506111523 75 206 0.0 3.5 0.00 0.00 0.00 91 1007.3
20260506110021 75 206 0.9 3.5 0.00 0.00 0.00 91 1007.1
20260506104520 75 214 0.9 3.5 0.00 0.00 0.00 90 1007.0
20260506103019 75 213 0.0 3.5 0.00 0.00 0.00 90 1007.1
20260506101517 75 187 0.0 6.1 0.00 0.00 0.00 90 1007.0
20260506100016 75 187 1.7 4.3 0.00 0.00 0.00 90 1007.0
20260506094518 75 201 1.7 6.1 0.00 0.00 0.00 90 1006.7
20260506093013 75 205 0.9 6.1 0.00 0.00 0.00 89 1006.8
20260506091516 76 211 1.7 8.7 0.00 0.00 0.00 88 1006.8
20260506090048 76 207 1.7 6.1 0.00 0.00 0.00 88 1007.0
20260506084553 76 209 1.7 5.2 0.00 0.00 0.00 88 1007.0
20260506083038 76 224 2.6 7.0 0.00 0.00 0.00 88 1007.1
20260506081540 76 206 0.9 6.1 0.00 0.00 0.00 88 1007.2
20260506073005 77 207 1.7 7.0 0.00 0.00 0.00 87 1007.7
20260506071504 77 205 2.6 7.0 0.00 0.00 0.00 87 1007.6
20260506061603 77 198 1.7 5.2 0.00 0.00 0.00 86 1008.1
20260506050107 77 209 1.7 7.8 0.00 0.00 0.00 86 1008.1
20260506044552 77 198 1.7 5.2 0.00 0.00 0.00 86 1008.0
20260506043054 77 209 0.9 4.3 0.00 0.00 0.00 86 1007.9
20260506041548 77 220 1.7 8.7 0.00 0.00 0.00 85 1007.8
20260506040051 77 194 2.6 6.1 0.00 0.00 0.00 85 1008.0
20260506034517 78 198 2.6 8.7 0.00 0.00 0.00 84 1007.8
20260506033018 78 213 3.5 9.6 0.00 0.00 0.00 84 1007.3
20260506031513 78 194 3.5 7.8 0.00 0.00 0.00 84 1007.3
20260506030018 78 187 2.6 7.8 0.00 0.00 0.00 83 1007.2
20260506024531 78 192 4.3 10.4 0.00 0.00 0.00 83 1007.0
20260506023011 78 194 3.5 7.0 0.00 0.00 0.00 82 1006.8
20260506021509 79 205 3.5 7.0 0.00 0.00 0.00 82 1006.6
20260506020010 79 211 4.3 8.7 0.00 0.00 0.00 81 1006.5
20260506014509 79 182 3.5 9.6 0.00 0.00 0.00 81 1006.2
20260506013007 79 194 2.6 7.0 0.00 0.00 0.00 80 1006.0
20260506011506 79 196 2.6 8.7 0.00 0.00 0.00 80 1005.8
20260506010007 79 196 2.6 7.0 0.00 0.00 0.00 79 1005.6
20260506004506 80 194 2.6 7.8 0.00 0.00 0.00 79 1005.6
20260506003003 80 182 1.7 11.3 0.00 0.00 0.00 78 1005.4
20260506001538 80 184 4.3 12.2 0.00 0.00 0.00 78 1005.4
20260506000038 80 247 4.3 9.6 0.00 0.00 0.00 78 1005.4
20260505234530 81 203 4.3 8.7 0.00 0.00 0.00 78 1005.2
20260505233029 81 163 4.3 10.4 0.00 0.00 0.00 78 1005.3
20260505231533 81 170 4.3 7.8 0.00 0.00 0.00 78 1005.3
20260505230035 81 195 4.3 8.7 0.00 0.00 0.00 77 1005.4
20260505224525 81 211 5.2 11.3 0.00 0.00 0.00 76 1005.3
20260505223030 82 197 4.3 11.3 0.00 0.00 0.00 77 1005.4
20260505221525 82 191 1.7 8.7 0.00 0.00 0.00 76 1005.4
20260505220021 83 190 3.5 9.6 0.00 0.00 0.00 75 1005.6
20260505214524 83 200 2.6 8.7 0.00 0.00 0.00 75 1005.7
20260505213019 83 193 1.7 7.8 0.00 0.00 0.00 75 1005.9
20260505211515 83 223 4.3 9.6 0.00 0.00 0.00 75 1006.0
20260505210014 83 198 3.5 10.4 0.00 0.00 0.00 76 1006.1
20260505204508 83 196 2.6 8.7 0.00 0.00 0.00 76 1006.3
20260505203007 83 218 2.6 9.6 0.00 0.00 0.00 75 1006.6
20260505201511 83 210 2.6 8.7 0.00 0.00 0.00 75 1006.9
20260505200003 82 232 2.6 8.7 0.00 0.00 0.00 76 1006.9
20260505194533 82 221 2.6 7.8 0.00 0.00 0.00 76 1007.2
20260505193034 82 199 4.3 11.3 0.00 0.00 0.00 76 1007.3
20260505191523 81 214 3.5 7.0 0.00 0.00 0.00 78 1007.4
20260505190027 81 175 2.6 12.2 0.00 0.00 0.00 78 1007.5
20260505184521 81 228 4.3 8.7 0.00 0.00 0.00 79 1007.6
20260505183027 80 300 2.6 9.6 0.00 0.00 0.00 78 1007.7